CYBD

Bella Coola Airport

Bella Coola, British Columbia, Canada
Issued Wind Visibility Ceiling Temperature Dew Point Humidity Barometer
Sep-22
15:00 UTC
15 miles Overcast
11,000' AGL
C
41° F
C
41° F
100% 30.12" Hg
1020.3 hPa
VFR
Sep-22
14:00 UTC
Varies @2 KTS 15 miles   C
39° F
C
39° F
100% 30.12" Hg
1020.2 hPa
VFR
Sep-22
13:00 UTC
Varies @2 KTS 15 miles   C
39° F
C
39° F
100% 30.13" Hg
1020.6 hPa
VFR
Sep-22
01:00 UTC
070°
3 KTS
15 miles Broken
25,000' AGL
16° C
61° F
11° C
52° F
72% 30.02" Hg
1016.8 hPa
VFR
Sep-22
00:00 UTC
140°
5 KTS
15 miles   20° C
68° F
C
39° F
35% 30.01" Hg
1016.3 hPa
VFR
Sep-21
23:00 UTC
150°
5 KTS
15 miles   21° C
70° F
C
39° F
33% 30.01" Hg
1016.5 hPa
VFR
Sep-21
22:00 UTC
Varies @3 KTS 15 miles   21° C
70° F
C
39° F
33% 30.01" Hg
1016.3 hPa
VFR
Sep-21
21:00 UTC
090°
4 KTS
15 miles   20° C
68° F
C
41° F
38% 30.01" Hg
1016.5 hPa
VFR
Sep-21
20:00 UTC
Varies @2 KTS 15 miles   18° C
64° F
C
46° F
52% 30.03" Hg
1017 hPa
VFR
Sep-21
19:00 UTC
040°
6 KTS
15 miles   16° C
61° F
C
43° F
52% 30.04" Hg
1017.4 hPa
VFR
Sep-21
18:00 UTC
080°
5 KTS
15 miles   14° C
57° F
C
41° F
55% 30.06" Hg
1018 hPa
VFR
Sep-21
17:00 UTC
100°
3 KTS
15 miles   11° C
52° F
C
45° F
77% 30.07" Hg
1018.5 hPa
VFR
Sep-21
16:00 UTC
15 miles   C
43° F
C
41° F
93% 30.06" Hg
1018.3 hPa
VFR